Regional Weather Roundup
Issued by NWS

Home | Current Version | Previous Version | Graphics & Text | Print | Product List | Glossary On
Versions: 1 2 3 4 5 6 7 8 9 10 11 12 13 14 15 16 17 18 19 20 21 22 23 24 25 26 27 28 29 30 31 32 33 34 35 36 37 38 39 40 41 42 43 44 45 46 47 48 49 50
000
ASUS43 KDMX 270807
RWRIA

WEATHER ROUNDUP FOR IOWA
NATIONAL WEATHER SERVICE DES MOINES IA
300 AM CDT FRI MAR 27 2015

NOTE: "FAIR" INDICATES FEW OR NO CLOUDS BELOW 12,000 FEET WITH NO
SIGNIFICANT WEATHER AND/OR OBSTRUCTIONS TO VISIBILITY.

* - THESE STATIONS ARE NOT NWS STATIONS...THUS NOT UNDER NWS
QUALITY CONTROL.  THEY ALSO DO NOT REPORT WEATHER SUCH
AS PRECIPITATION OR FOG.

IAZ001>003-012>014-020>022-031>034-043>046-270900-
   NORTHWEST IOWA

CITY           SKY/WX    TMP DP  RH WIND       PRES   REMARKS
CARROLL *      MOCLDY    25  19  80 N8        30.21S WCI  16
CHEROKEE *     CLEAR     23  18  80 N5        30.24S WCI  17
DENISON *      CLEAR     25  19  80 N7        30.21S WCI  17
LE MARS *      CLEAR     23  18  80 NE6       30.27R WCI  16
ORANGE CITY *  CLEAR     25  16  68 N8        30.24S WCI  16
SHELDON *      CLEAR     19  16  86 NW9       30.24R WCI   9
SIOUX CITY     CLEAR     25  16  68 MISG      30.27R
SPENCER        CLEAR     22  15  75 N10       30.23S WCI  11
STORM LAKE *   CLEAR     21  16  79 N8        30.22S WCI  12
$$

IAZ055>058-069>071-079>083-090>094-270900-
   SOUTHWEST IOWA

CITY           SKY/WX    TMP DP  RH WIND       PRES   REMARKS
ATLANTIC *     PTCLDY    27  19  74 N10       30.22R WCI  17
AUDUBON *      CLEAR     25  19  80 NW6       30.21S WCI  18
CLARINDA *     CLOUDY    30  27  86 N8        30.22S WCI  23
COUNCIL BLFS * MOCLDY    28  21  74 N12       30.22S WCI  18
CRESTON *      PTCLDY    27  23  86 N9        30.19R WCI  17
HARLAN  *      CLEAR     25  23  93 N8        30.26R WCI  16
LAMONI         PTCLDY    30  24  78 N9        30.17R WCI  22
RED OAK *      CLOUDY    30  25  80 N12       30.22R WCI  21
SHENANDOAH *   CLOUDY    30  27  86 N9        30.23R WCI  22
$$

IAZ047>049-059>061-072>074-084-270900-
   CENTRAL IOWA

CITY           SKY/WX    TMP DP  RH WIND       PRES   REMARKS
AMES           CLOUDY    30  15  53 N10       30.19S WCI  21
ANKENY *       CLOUDY    30  18  59 N13       30.20R WCI  20
CHARITON *     CLOUDY    30  21  69 N12       30.17S WCI  21
DES MOINES     CLOUDY    32  19  58 N13       30.19S WCI  22
GRINNELL*      CLOUDY    30  21  69 NW9       30.17S WCI  22
KNOXVILLE *    CLOUDY    32  19  59 N10       30.16S WCI  24
MARSHALLTOWN   CLOUDY    29  20  69 N12       30.16S WCI  19
PELLA *        CLOUDY    32  23  69 N8        30.18S WCI  25
PERRY *        CLOUDY    30  19  64 N13       30.21R WCI  20
$$

IAZ004>006-015-016-023>025-035-036-270900-
   NORTH CENTRAL IOWA

CITY           SKY/WX    TMP DP  RH WIND       PRES   REMARKS
ALGONA *       CLEAR     25  19  80 N7        30.21S WCI  17
CLARION *      CLEAR     25  21  86 N9        30.20R WCI  15
ESTHERVILLE    CLEAR     21  15  78 N10       30.22R WCI  10
FORT DODGE *   CLEAR     25  16  68 N5        30.21S WCI  19
MASON CITY     CLEAR     22  18  85 NW8       30.20R WCI  12
FOREST CITY *  CLEAR     21  19  93 N8        30.19S WCI  12
IOWA FALLS *     N/A     27  21  80 NW9       30.19S WCI  17
$$

IAZ007>011-017>019-026>030-037>042-050>054-066-270900-
   NORTHEAST IOWA

CITY           SKY/WX    TMP DP  RH WIND       PRES   REMARKS
CEDAR RAPIDS   CLOUDY    29  22  75 N8        30.13S WCI  21
CHARLES CITY * CLEAR     25  18  74 N9        30.18R WCI  15
CLINTON *      CLOUDY    30  21  69 N7        30.14F WCI  23
DECORAH *      CLEAR     25  12  58 NE7       30.15R WCI  17
DUBUQUE        CLOUDY    28  17  63 NE10      30.12R WCI  19
MONTICELLO *   CLOUDY    30  25  80 N6        30.13S WCI  24
OELWEIN *      CLEAR     25  19  80 N9        30.15S WCI  15
WATERLOO       CLEAR     25  18  74 N10       30.16S WCI  15
$$

IAZ064-065-067-068-078-270900-
   EAST CENTRAL IOWA

CITY           SKY/WX    TMP DP  RH WIND       PRES   REMARKS
DAVENPORT      CLOUDY    29  22  75 N9        30.12S WCI  20
IOWA CITY      CLOUDY    30  21  69 NW7       30.16S WCI  23
MT. PLEASANT * CLOUDY    30  21  69 NW10      30.14S WCI  21
MUSCATINE *    CLOUDY    30  23  74 NW8       30.15S WCI  23
QUAD CITIES    MOCLDY    31  21  66 N8        30.11S WCI  23
$$

IAZ062-063-075>077-085>089-095>099-270900-
   SOUTHEAST IOWA

CITY           SKY/WX    TMP DP  RH WIND       PRES   REMARKS
BURLINGTON     CLOUDY    31  21  66 N7        30.12F WCI  24
FAIRFIELD *    CLOUDY    32  21  64 N8        30.15S WCI  25
FORT MADISON * CLOUDY    30  21  69 N10       30.13F WCI  21
KEOKUK *       CLOUDY    32  21  64 N10       30.12F WCI  24
OSKALOOSA *    CLOUDY    32  19  59 N9        30.17R WCI  24
CENTERVILLE *  CLOUDY    32  23  69 N9        30.16S WCI  24
OTTUMWA        CLOUDY    31  19  61 N10       30.15S WCI  22
WASHINGTON *   CLOUDY    32  23  69 NW10      30.14F WCI  24
$$

ABBREVIATIONS USED IN REMARKS
   TC - TEMPERATURES IN CELSIUS
  WCI - WIND CHILL INDEX
   HX - HEAT INDEX
  VSB - VISIBILITY
$$




USA.gov is the U.S. government's official web portal to all federal, state and local government web resources and services.